^^
Newington CT Miami Avenue Station Historical Data
 
Daily Summary for December 19, 2018 Units:  English    Metric   Both
Daily Weekly Monthly Yearly Custom
  Current: High: Low: Average:
Temperature: 27 °F 27 °F 18.4 °F 20.5 °F
Dew Point: 20.1 °F 20.1 °F 13.7 °F 15.2 °F
Humidity: 75% 86% 70% 80%
Wind Speed: 3.1mph 3.1mph 0mph 0.6mph
Wind Gust: 3.5mph 6.9mph - -
WindWNW - - SSW
Pressure: 30.07 in 30.08 in 30.01 in -
Precipitation: 0 in      
Historical Graphs
 
 
Tabular Data for December 19, 2018
Time Temperature Dew Point Pressure Wind Wind Speed Wind Gust Humidity Rainfall Rate (Hourly) solar
00:04 22 °F 13.7 °F 30.02 in NW 1 mph 3.5 mph 70% 0 in 0.00 W/m2
00:09 22 °F 13.7 °F 30.02 in West 0.8 mph 3.5 mph 70% 0 in 0.00 W/m2
00:14 22.1 °F 13.8 °F 30.02 in WNW 1.6 mph 3.5 mph 70% 0 in 0.00 W/m2
00:19 22.1 °F 13.8 °F 30.02 in NW 0.8 mph 3.5 mph 70% 0 in 0.00 W/m2
00:24 22.2 °F 13.9 °F 30.02 in NW 1.2 mph 3.5 mph 70% 0 in 0.00 W/m2
00:29 22.3 °F 14.3 °F 30.02 in NW 0.8 mph 3.5 mph 71% 0 in 0.00 W/m2
00:34 22.2 °F 13.9 °F 30.02 in NW 0.4 mph 2.3 mph 70% 0 in 0.00 W/m2
00:39 22.3 °F 14.3 °F 30.02 in North 1.6 mph 3.5 mph 71% 0 in 0.00 W/m2
00:44 22.4 °F 14.4 °F 30.02 in NNE 1.5 mph 3.5 mph 71% 0 in 0.00 W/m2
00:49 22.5 °F 14.5 °F 30.02 in NNW 0.9 mph 3.5 mph 71% 0 in 0.00 W/m2
00:54 22.6 °F 14.3 °F 30.02 in Calm   3.5 mph 70% 0 in 0.00 W/m2
00:59 22.6 °F 14.6 °F 30.01 in NNE 0.3 mph 3.5 mph 71% 0 in 0.00 W/m2
01:04 22.5 °F 14.8 °F 30.02 in NNE 0.9 mph 2.3 mph 72% 0 in 0.00 W/m2
01:09 22.5 °F 14.5 °F 30.01 in NNE 0.5 mph 2.3 mph 71% 0 in 0.00 W/m2
01:14 22.5 °F 14.5 °F 30.02 in NNE 0.9 mph 2.3 mph 71% 0 in 0.00 W/m2
01:19 22.4 °F 14.4 °F 30.02 in NNE 0.4 mph 2.3 mph 71% 0 in 0.00 W/m2
01:24 22.3 °F 14.3 °F 30.02 in Calm   2.3 mph 71% 0 in 0.00 W/m2
01:29 22.3 °F 14.6 °F 30.02 in NNE 0.4 mph 2.3 mph 72% 0 in 0.00 W/m2
01:34 22.2 °F 14.5 °F 30.02 in Calm   1.2 mph 72% 0 in 0.00 W/m2
01:39 22.2 °F 14.9 °F 30.03 in Calm   1.2 mph 73% 0 in 0.00 W/m2
01:44 22.1 °F 14.8 °F 30.03 in Calm   1.2 mph 73% 0 in 0.00 W/m2
01:49 21.9 °F 14.6 °F 30.03 in Calm   1.2 mph 73% 0 in 0.00 W/m2
01:54 21.8 °F 14.8 °F 30.03 in Calm     74% 0 in 0.00 W/m2
01:59 21.8 °F 14.8 °F 30.04 in Calm     74% 0 in 0.00 W/m2
02:04 21.7 °F 14.7 °F 30.03 in NNE 0.5 mph 1.2 mph 74% 0 in 0.00 W/m2
02:09 21.5 °F 14.8 °F 30.03 in Calm   1.2 mph 75% 0 in 0.00 W/m2
02:14 21.4 °F 14.4 °F 30.03 in NNE 0.1 mph 1.2 mph 74% 0 in 0.00 W/m2
02:19 21.2 °F 14.2 °F 30.03 in Calm   1.2 mph 74% 0 in 0.00 W/m2
02:24 21.1 °F 14.4 °F 30.03 in Calm   1.2 mph 75% 0 in 0.00 W/m2
02:29 21 °F 14.3 °F 30.03 in Calm     75% 0 in 0.00 W/m2
02:34 20.8 °F 14.4 °F 30.02 in Calm     76% 0 in 0.00 W/m2
02:39 20.6 °F 14.5 °F 30.02 in Calm   1.2 mph 77% 0 in 0.00 W/m2
02:44 20.5 °F 14.4 °F 30.02 in Calm   1.2 mph 77% 0 in 0.00 W/m2
02:49 20.3 °F 14.5 °F 30.02 in Calm   1.2 mph 78% 0 in 0.00 W/m2
02:54 20.2 °F 14.4 °F 30.03 in Calm   1.2 mph 78% 0 in 0.00 W/m2
02:59 20.1 °F 14.3 °F 30.03 in Calm     78% 0 in 0.00 W/m2
03:04 20 °F 14.2 °F 30.03 in Calm     78% 0 in 0.00 W/m2
03:09 19.9 °F 14.1 °F 30.03 in Calm     78% 0 in 0.00 W/m2
03:14 19.8 °F 14 °F 30.03 in Calm     78% 0 in 0.00 W/m2
03:19 19.7 °F 14.2 °F 30.03 in Calm     79% 0 in 0.00 W/m2
03:24 19.7 °F 14.2 °F 30.03 in Calm     79% 0 in 0.00 W/m2
03:29 19.5 °F 14 °F 30.03 in Calm     79% 0 in 0.00 W/m2
03:34 19.4 °F 13.9 °F 30.03 in Calm     79% 0 in 0.00 W/m2
03:39 19.3 °F 14.1 °F 30.03 in NNE 0.1 mph   80% 0 in 0.00 W/m2
03:44 19.2 °F 14 °F 30.03 in Calm   1.2 mph 80% 0 in 0.00 W/m2
03:49 19.1 °F 13.9 °F 30.03 in NNE 0.2 mph 1.2 mph 80% 0 in 0.00 W/m2
03:54 18.9 °F 14 °F 30.03 in Calm   1.2 mph 81% 0 in 0.00 W/m2
03:59 18.9 °F 14 °F 30.03 in Calm   1.2 mph 81% 0 in 0.00 W/m2
04:04 18.8 °F 14.2 °F 30.03 in Calm     82% 0 in 0.00 W/m2
04:09 18.7 °F 14.1 °F 30.03 in Calm     82% 0 in 0.00 W/m2
04:14 18.7 °F 14.1 °F 30.03 in Calm   1.2 mph 82% 0 in 0.00 W/m2
04:19 18.7 °F 14.1 °F 30.03 in Calm   1.2 mph 82% 0 in 0.00 W/m2
04:24 18.6 °F 14 °F 30.03 in Calm   1.2 mph 82% 0 in 0.00 W/m2
04:29 18.6 °F 14 °F 30.03 in Calm   1.2 mph 82% 0 in 0.00 W/m2
04:34 18.5 °F 13.9 °F 30.03 in Calm   1.2 mph 82% 0 in 0.00 W/m2
04:39 18.4 °F 13.8 °F 30.04 in NNE 0.2 mph 1.2 mph 82% 0 in 0.00 W/m2
04:44 18.4 °F 14.1 °F 30.04 in Calm   1.2 mph 83% 0 in 0.00 W/m2
04:49 18.4 °F 14.1 °F 30.05 in Calm   1.2 mph 83% 0 in 0.00 W/m2
04:54 18.4 °F 14.1 °F 30.05 in NNE 0.1 mph 1.2 mph 83% 0 in 0.00 W/m2
04:59 18.4 °F 14.1 °F 30.05 in Calm   1.2 mph 83% 0 in 0.00 W/m2
05:04 18.4 °F 14.1 °F 30.05 in Calm   1.2 mph 83% 0 in 0.00 W/m2
05:09 18.4 °F 14.1 °F 30.05 in Calm     83% 0 in 0.00 W/m2
05:14 18.4 °F 14.1 °F 30.04 in NNE 0.3 mph 1.2 mph 83% 0 in 0.00 W/m2
05:19 18.5 °F 14.5 °F 30.05 in Calm   1.2 mph 84% 0 in 0.00 W/m2
05:24 18.5 °F 14.5 °F 30.05 in Calm   1.2 mph 84% 0 in 0.00 W/m2
05:29 18.5 °F 14.5 °F 30.05 in Calm   1.2 mph 84% 0 in 0.00 W/m2
05:34 18.5 °F 14.5 °F 30.05 in Calm   1.2 mph 84% 0 in 0.00 W/m2
05:39 18.5 °F 14.5 °F 30.05 in Calm   1.2 mph 84% 0 in 0.00 W/m2
05:44 18.5 °F 14.5 °F 30.06 in NNE 0.8 mph 2.3 mph 84% 0 in 0.00 W/m2
05:49 18.6 °F 14.6 °F 30.06 in West 0.3 mph 3.5 mph 84% 0 in 0.00 W/m2
05:54 18.6 °F 14.6 °F 30.06 in Calm   3.5 mph 84% 0 in 0.00 W/m2
05:59 18.7 °F 14.7 °F 30.06 in Calm   1.2 mph 84% 0 in 0.00 W/m2
06:04 18.7 °F 14.7 °F 30.06 in West 0.3 mph 1.2 mph 84% 0 in 0.00 W/m2
06:09 18.7 °F 14.7 °F 30.06 in West 0.6 mph 1.2 mph 84% 0 in 0.00 W/m2
06:14 18.8 °F 14.8 °F 30.06 in West 0.3 mph 1.2 mph 84% 0 in 0.00 W/m2
06:19 18.8 °F 14.8 °F 30.06 in Calm   1.2 mph 84% 0 in 0.00 W/m2
06:24 18.9 °F 14.9 °F 30.06 in Calm   1.2 mph 84% 0 in 0.00 W/m2
06:29 19 °F 15.2 °F 30.06 in Calm     85% 0 in 0.00 W/m2
06:34 19.1 °F 15.3 °F 30.06 in Calm     85% 0 in 0.00 W/m2
06:39 19.2 °F 15.4 °F 30.06 in Calm     85% 0 in 0.00 W/m2
06:44 19.2 °F 15.4 °F 30.06 in Calm     85% 0 in 0.00 W/m2
06:49 19.2 °F 15.4 °F 30.06 in West 0.1 mph 1.2 mph 85% 0 in 0.00 W/m2
06:54 19.1 °F 15.3 °F 30.06 in Calm   1.2 mph 85% 0 in 0.00 W/m2
06:59 19.1 °F 15.3 °F 30.06 in West 0.7 mph 2.3 mph 85% 0 in 0.00 W/m2
07:04 19.1 °F 15.3 °F 30.07 in West 0.5 mph 2.3 mph 85% 0 in 0.00 W/m2
07:09 19 °F 15.2 °F 30.06 in Calm   1.2 mph 85% 0 in 0.00 W/m2
07:14 18.9 °F 15.1 °F 30.07 in Calm   1.2 mph 85% 0 in 0.00 W/m2
07:19 18.9 °F 15.1 °F 30.07 in Calm   1.2 mph 85% 0 in 0.00 W/m2
07:24 18.9 °F 15.1 °F 30.07 in West 0.4 mph 1.2 mph 85% 0 in 0.00 W/m2
07:29 18.8 °F 15 °F 30.07 in West 1.3 mph 2.3 mph 85% 0 in 5.00 W/m2
07:34 18.8 °F 15 °F 30.07 in West 0.2 mph 2.3 mph 85% 0 in 5.00 W/m2
07:39 18.7 °F 14.9 °F 30.07 in West 0.4 mph 2.3 mph 85% 0 in 7.00 W/m2
07:44 18.6 °F 14.8 °F 30.07 in West 1.4 mph 2.3 mph 85% 0 in 7.00 W/m2
07:49 18.6 °F 14.8 °F 30.07 in South 2.2 mph 3.5 mph 85% 0 in 11.00 W/m2
07:54 18.7 °F 14.9 °F 30.07 in South 0.8 mph 3.5 mph 85% 0 in 11.00 W/m2
07:59 18.7 °F 14.9 °F 30.07 in South 1.8 mph 3.5 mph 85% 0 in 11.00 W/m2
08:04 18.8 °F 15 °F 30.07 in South 1.2 mph 3.5 mph 85% 0 in 12.00 W/m2
08:09 18.9 °F 15.4 °F 30.07 in SSW 0.6 mph 3.5 mph 86% 0 in 12.00 W/m2
08:14 19 °F 15.5 °F 30.07 in SSW 0.6 mph 3.5 mph 86% 0 in 14.00 W/m2
08:19 19.1 °F 15.6 °F 30.08 in SSW 0.3 mph 2.3 mph 86% 0 in 14.00 W/m2
08:24 19.3 °F 15.8 °F 30.08 in WSW 1.7 mph 3.5 mph 86% 0 in 16.00 W/m2
08:29 19.6 °F 16.1 °F 30.08 in West 1.5 mph 3.5 mph 86% 0 in 19.00 W/m2
08:34 19.8 °F 16.3 °F 30.08 in SW 1.8 mph 3.5 mph 86% 0 in 21.00 W/m2
08:39 20.1 °F 16.6 °F 30.08 in SW 1.7 mph 3.5 mph 86% 0 in 21.00 W/m2
08:44 20.4 °F 16.9 °F 30.08 in SW 1.9 mph 3.5 mph 86% 0 in 21.00 W/m2
08:49 20.7 °F 17.2 °F 30.08 in WSW 0.2 mph 3.5 mph 86% 0 in 21.00 W/m2
08:54 21.1 °F 17.3 °F 30.07 in WSW 0.3 mph 3.5 mph 85% 0 in 21.00 W/m2
08:59 21.3 °F 17.5 °F 30.07 in West 1.7 mph 3.5 mph 85% 0 in 21.00 W/m2
09:04 21.7 °F 17.6 °F 30.07 in West 2.3 mph 3.5 mph 84% 0 in 21.00 W/m2
09:09 22 °F 17.9 °F 30.07 in West 1 mph 3.5 mph 84% 0 in 25.00 W/m2
09:14 22.4 °F 18 °F 30.07 in WSW 1.6 mph 3.5 mph 83% 0 in 25.00 W/m2
09:19 22.7 °F 18.3 °F 30.07 in West 1.9 mph 3.5 mph 83% 0 in 26.00 W/m2
09:24 23.3 °F 18.9 °F 30.08 in WSW 2.4 mph 3.5 mph 83% 0 in 26.00 W/m2
09:29 23.8 °F 19.1 °F 30.08 in West 1.9 mph 5.8 mph 82% 0 in 28.00 W/m2
09:34 24.2 °F 19.2 °F 30.08 in WSW 2.6 mph 5.8 mph 81% 0 in 30.00 W/m2
09:39 24.6 °F 19.3 °F 30.07 in SW 2.4 mph 6.9 mph 80% 0 in 30.00 W/m2
09:44 25.1 °F 19.2 °F 30.07 in WNW 2.5 mph 6.9 mph 78% 0 in 30.00 W/m2
09:49 25.6 °F 19.4 °F 30.07 in SW 2.3 mph 3.5 mph 77% 0 in 32.00 W/m2
09:54 26 °F 19.8 °F 30.07 in WNW 2.4 mph 5.8 mph 77% 0 in 33.00 W/m2
09:59 26.3 °F 19.8 °F 30.07 in WNW 1.6 mph 5.8 mph 76% 0 in 33.00 W/m2
10:04 26.7 °F 19.8 °F 30.07 in West 2.2 mph 3.5 mph 75% 0 in 35.00 W/m2
10:09 27 °F 20.1 °F 30.07 in WNW 3.1 mph 3.5 mph 75% 0 in 35.00 W/m2
Miami Avenue Weather - Newington CT
Compliments of Weather Underground - 2 mb